Total_Precipitation_Accumulation
1.29 1.30 1.26 1.16 1.15 1.16 1.17 1.24 1.34 1.19 0.89 0.68 0.65 0.65 0.69 0.72 0.81 0.78 0.72 0.86 0.87 0.83 0.85 0.85 0.84 0.82 0.80 0.83 0.92 1.07 1.18 1.24 1.28 1.37 1.43 1.41 1.36 1.39
1.13 1.19 1.21 1.14 1.11 1.13 1.16 1.19 1.28 1.33 1.12 0.76 0.64 0.63 0.67 0.70 0.78 0.71 0.66 0.79 0.77 0.75 0.74 0.72 0.72 0.70 0.69 0.69 0.72 0.80 0.90 0.99 1.06 1.17 1.35 1.50 1.56 1.58
0.98 1.01 1.04 1.07 1.12 1.12 1.14 1.18 1.23 1.29 1.26 0.93 0.75 0.73 0.77 0.76 0.76 0.70 0.63 0.62 0.61 0.71 0.67 0.64 0.62 0.62 0.61 0.61 0.62 0.65 0.68 0.75 0.86 0.98 1.12 1.27 1.39 1.44
0.84 0.89 0.91 0.94 0.99 1.04 1.10 1.15 1.18 1.20 1.22 1.07 0.84 0.75 0.74 0.71 0.68 0.65 0.60 0.56 0.51 0.62 0.61 0.57 0.56 0.54 0.52 0.52 0.55 0.59 0.61 0.64 0.70 0.77 0.85 0.97 1.10 1.22
0.74 0.78 0.81 0.86 0.92 0.93 0.97 1.01 1.02 1.04 1.08 1.05 0.87 0.72 0.66 0.62 0.62 0.58 0.53 0.50 0.46 0.50 0.52 0.51 0.51 0.52 0.52 0.52 0.53 0.54 0.53 0.52 0.54 0.59 0.66 0.77 0.87 0.96
0.71 0.74 0.76 0.79 0.81 0.83 0.88 0.90 0.90 0.91 0.93 0.96 0.89 0.78 0.72 0.67 0.68 0.64 0.58 0.52 0.49 0.44 0.50 0.51 0.52 0.52 0.48 0.45 0.44 0.45 0.47 0.49 0.53 0.59 0.65 0.71 0.78 0.87
0.70 0.72 0.75 0.83 0.84 0.82 0.81 0.80 0.81 0.86 0.90 0.97 0.94 0.79 0.66 0.62 0.61 0.57 0.56 0.55 0.55 0.51 0.50 0.46 0.41 0.37 0.36 0.38 0.40 0.43 0.46 0.51 0.55 0.59 0.65 0.71 0.76 0.83
0.68 0.66 0.66 0.71 0.70 0.71 0.71 0.70 0.75 0.83 0.94 0.98 0.87 0.71 0.56 0.49 0.49 0.54 0.59 0.64 0.58 0.41 0.42 0.41 0.39 0.38 0.34 0.32 0.40 0.44 0.45 0.47 0.50 0.52 0.55 0.61 0.67 0.73
0.64 0.59 0.56 0.54 0.56 0.49 0.52 0.57 0.60 0.68 0.71 0.65 0.58 0.50 0.46 0.45 0.54 0.64 0.63 0.62 0.50 0.36 0.43 0.47 0.41 0.39 0.34 0.35 0.42 0.39 0.40 0.42 0.46 0.51 0.53 0.56 0.60 0.65
0.49 0.44 0.41 0.38 0.37 0.39 0.41 0.49 0.47 0.46 0.45 0.42 0.40 0.38 0.38 0.41 0.51 0.63 0.65 0.64 0.52 0.41 0.41 0.44 0.36 0.33 0.30 0.31 0.39 0.39 0.39 0.42 0.48 0.54 0.57 0.58 0.60 0.64
0.37 0.34 0.34 0.32 0.38 0.45 0.45 0.47 0.38 0.33 0.37 0.41 0.44 0.43 0.44 0.44 0.45 0.56 0.67 0.75 0.66 0.44 0.35 0.37 0.32 0.31 0.31 0.30 0.33 0.39 0.38 0.40 0.43 0.45 0.49 0.53 0.57 0.63
0.29 0.29 0.34 0.34 0.41 0.49 0.45 0.41 0.35 0.31 0.32 0.36 0.39 0.41 0.39 0.41 0.47 0.47 0.62 0.87 0.77 0.54 0.30 0.35 0.37 0.44 0.58 0.35 0.29 0.31 0.34 0.38 0.41 0.43 0.46 0.51 0.58 0.62
0.26 0.26 0.29 0.39 0.46 0.49 0.43 0.36 0.37 0.41 0.37 0.35 0.36 0.37 0.39 0.41 0.43 0.42 0.49 0.83 1.04 0.75 0.35 0.59 0.75 0.57 0.72 0.51 0.31 0.29 0.31 0.33 0.38 0.41 0.46 0.52 0.61 0.75
0.24 0.24 0.28 0.40 0.42 0.40 0.39 0.39 0.43 0.41 0.34 0.37 0.40 0.38 0.36 0.34 0.34 0.36 0.39 0.45 0.60 0.69 0.50 0.76 1.11 0.84 0.94 0.76 0.42 0.32 0.32 0.33 0.41 0.50 0.55 0.64 0.68 0.76
0.26 0.28 0.32 0.34 0.33 0.33 0.36 0.41 0.41 0.36 0.36 0.39 0.39 0.37 0.34 0.34 0.36 0.40 0.42 0.42 0.41 0.40 0.42 0.51 0.78 0.85 1.04 1.00 0.64 0.40 0.39 0.38 0.41 0.55 0.64 0.68 0.69 0.74
0.30 0.30 0.30 0.28 0.29 0.30 0.32 0.35 0.36 0.37 0.41 0.43 0.40 0.37 0.38 0.40 0.43 0.45 0.48 0.49 0.52 0.45 0.40 0.40 0.49 0.77 0.94 0.73 0.74 0.62 0.50 0.56 0.51 0.61 0.70 0.73 0.77 0.81
0.40 0.34 0.31 0.30 0.29 0.28 0.29 0.31 0.33 0.37 0.42 0.43 0.46 0.47 0.46 0.45 0.44 0.44 0.51 0.56 0.60 0.48 0.41 0.40 0.44 0.51 0.61 0.66 0.71 0.58 0.53 0.59 0.67 0.79 0.92 0.95 0.88 0.92
0.50 0.39 0.32 0.30 0.30 0.29 0.30 0.33 0.37 0.40 0.44 0.50 0.54 0.57 0.58 0.57 0.53 0.47 0.49 0.58 0.59 0.49 0.44 0.43 0.50 0.61 0.58 0.51 0.54 0.65 0.67 0.74 0.79 0.85 1.01 1.19 1.04 0.90
0.47 0.35 0.28 0.26 0.27 0.30 0.35 0.39 0.41 0.42 0.49 0.58 0.64 0.67 0.69 0.66 0.62 0.58 0.54 0.56 0.54 0.48 0.45 0.48 0.62 0.93 0.96 0.59 0.39 0.57 0.89 0.97 0.91 0.93 1.01 1.21 1.35 1.13
0.34 0.29 0.27 0.27 0.31 0.36 0.40 0.43 0.46 0.48 0.53 0.58 0.62 0.68 0.76 0.79 0.72 0.64 0.60 0.62 0.64 0.57 0.49 0.45 0.55 0.91 1.33 1.13 0.81 0.59 0.72 1.05 1.27 1.31 1.10 0.96 1.01 1.01
0.25 0.26 0.29 0.34 0.39 0.43 0.46 0.49 0.54 0.56 0.56 0.61 0.64 0.68 0.77 0.86 0.77 0.65 0.66 0.64 0.69 0.68 0.60 0.46 0.45 0.64 0.96 1.15 0.97 0.63 0.64 0.77 1.10 1.52 1.47 1.26 1.04 0.93
0.27 0.31 0.35 0.41 0.49 0.54 0.56 0.57 0.59 0.56 0.58 0.62 0.64 0.67 0.73 0.84 0.84 0.75 0.73 0.74 0.69 0.67 0.63 0.51 0.48 0.58 0.78 1.02 0.87 0.61 0.59 0.57 0.59 0.71 1.08 1.59 2.10 2.19
0.35 0.39 0.42 0.48 0.54 0.60 0.62 0.61 0.60 0.56 0.56 0.65 0.69 0.70 0.74 0.79 0.75 0.80 0.80 0.81 0.81 0.72 0.66 0.60 0.52 0.53 0.58 0.67 0.75 0.66 0.58 0.54 0.50 0.56 0.77 0.95 1.22 1.51